This demonstration page uses our WeatherBlox Daily Observations layout. Learn more.

Left ArrowRight Arrow

Hourly Observations for June 8, 2018

Temp ( °F °C ) Dew Point ( °F °C ) Humidity (%) Winds ( mph kmh ) Pressure ( in mb ) Visibility ( mi km ) Precip ( " mm )
12:56 am 00:56 Clear 68 20 64 17.8 87 87 ESE 6 9 29.96 1015 10 16 0.00 0.00
1:56 am 01:56 Clear 68 20 64 17.8 87 87 SE 5 7 29.95 1014 10 16 0.00 0.00
2:56 am 02:56 Clear 66 18.9 63 17.2 90 90 E 3 6 29.96 1015 10 16 0.00 0.00
3:56 am 03:56 Clear 66 18.9 63 17.2 90 90 SSE 5 7 29.95 1014 10 16 0.00 0.00
4:56 am 04:56 Partly Cloudy 67 19.4 64 17.8 91 91 Calm 29.97 1015 10 16 0.00 0.00
5:56 am 05:56 Mostly Clear 65 18.3 63 17.2 93 93 NNE 5 7 29.97 1015 8 13 0.00 0.00
6:56 am 06:56 Sunny with Mist and Fog 66 18.9 64 17.8 93 93 SE 5 7 29.98 1015 6 10 0.00 0.00
7:56 am 07:56 Sunny 70 21.1 65 18.3 84 84 S 10 17 29.96 1015 8 13 0.00 0.00
8:56 am 08:56 Sunny 71 21.7 65 18.3 81 81 S 13 20 29.98 1015 10 16 0.00 0.00
9:56 am 09:56 Sunny 75 23.9 66 18.9 74 74 SSW 16 26 29.97 1015 10 16 0.00 0.00
10:56 am 10:56 Sunny 80 26.7 67 19.4 64 64 S 15 24 29.96 1015 10 16 0.00 0.00
11:56 am 11:56 Sunny 82 27.8 67 19.4 60 60 S 7 11 29.96 1015 10 16 0.00 0.00
12:56 pm 12:56 Sunny 84 28.9 66 18.9 55 55 SE 13 20 29.95 1014 10 16 0.00 0.00
1:56 pm 13:56 Sunny 86 30 67 19.4 53 53 ESE 16 26 29.93 1014 10 16 0.00 0.00
2:56 pm 14:56 Sunny 87 30.6 68 20 53 53 ESE 16 26 29.92 1013 10 16 0.00 0.00
3:56 pm 15:56 Sunny 88 31.1 67 19.4 50 50 SSE 17 28 29.90 1013 10 16 0.00 0.00
4:56 pm 16:56 Sunny 89 31.7 66 18.9 47 47 SSE 20 31 29.89 1012 10 16 0.00 0.00
5:56 pm 17:56 Sunny 88 31.1 67 19.4 50 50 SSE 17 28 29.89 1012 9 14 0.00 0.00
6:56 pm 18:56 Sunny 88 31.1 66 18.9 48 48 SSE 17 28 29.88 1012 10 16 0.00 0.00
7:56 pm 19:56 Sunny 86 30 67 19.4 53 53 SE 14 22 29.87 1011 10 16 0.00 0.00
8:56 pm 20:56 Sunny 82 27.8 68 20 63 63 SE 10 17 29.86 1011 10 16 0.00 0.00
9:56 pm 21:56 Clear 79 26.1 67 19.4 67 67 SE 9 15 29.88 1012 10 16 0.00 0.00
10:56 pm 22:56 Clear 78 25.6 67 19.4 69 69 SE 8 13 29.90 1012 10 16 0.00 0.00
11:56 pm 23:56 Clear 76 24.4 67 19.4 74 74 SE 9 15 29.90 1012 10 16 0.00 0.00

Powered by AerisWeather